Previsão horária em Cervia

Hoje, 31 Julho, Sábado

Tempo Temperatura Precipitação Vento Pressão Humidade
00:00 +27°C° 0 mm 3 m/s 756 mmHg 45%
01:00 +27°C° 0 mm 3 m/s 756 mmHg 45%
02:00 +26°C° 0 mm 3 m/s 756 mmHg 47%
03:00 +26°C° 0 mm 3 m/s 756 mmHg 49%
04:00 +25°C° 0 mm 3 m/s 755 mmHg 52%
05:00 +26°C° 0 mm 3 m/s 756 mmHg 49%
06:00 +27°C° 0 mm 3 m/s 756 mmHg 47%
07:00 +28°C° 0 mm 3 m/s 756 mmHg 45%
08:00 +31°C° 0 mm 3 m/s 756 mmHg 39%
09:00 +34°C° 0 mm 2 m/s 756 mmHg 34%
10:00 +37°C° 0 mm 2 m/s 756 mmHg 28%
11:00 +38°C° 0 mm 3 m/s 756 mmHg 27%
12:00 +40°C° 0 mm 4 m/s 755 mmHg 25%
13:00 +41°C° 0 mm 5 m/s 755 mmHg 24%
14:00 +40°C° 0 mm 5 m/s 755 mmHg 25%
15:00 +40°C° 0 mm 5 m/s 754 mmHg 27%
16:00 +39°C° 0 mm 5 m/s 754 mmHg 28%
17:00 +36°C° 0 mm 5 m/s 754 mmHg 36%
18:00 +34°C° 0 mm 5 m/s 754 mmHg 43%
19:00 +32°C° 0 mm 4 m/s 754 mmHg 51%
20:00 +30°C° 0 mm 4 m/s 754 mmHg 54%
21:00 +29°C° 0 mm 4 m/s 754 mmHg 57%
22:00 +28°C° 0 mm 3 m/s 754 mmHg 60%
23:00 +27°C° 0 mm 3 m/s 754 mmHg 58%

Amanhã, 1 Agosto, Domingo

Tempo Temperatura Precipitação Vento Pressão Humidade
00:00 +27°C° 0 mm 3 m/s 754 mmHg 56%
01:00 +26°C° 0 mm 3 m/s 754 mmHg 54%
02:00 +26°C° 0 mm 3 m/s 754 mmHg 57%
03:00 +26°C° 0 mm 4 m/s 754 mmHg 60%
04:00 +25°C° 0 mm 4 m/s 754 mmHg 62%
05:00 +26°C° 0 mm 4 m/s 754 mmHg 61%
06:00 +27°C° 0 mm 4 m/s 754 mmHg 60%
07:00 +28°C° 0 mm 4 m/s 754 mmHg 58%
08:00 +30°C° 0 mm 4 m/s 754 mmHg 53%
09:00 +33°C° 0 mm 4 m/s 754 mmHg 48%
10:00 +35°C° 0 mm 4 m/s 754 mmHg 42%
11:00 +36°C° 0 mm 5 m/s 754 mmHg 38%
12:00 +38°C° 0 mm 6 m/s 753 mmHg 34%
13:00 +39°C° 0 mm 6 m/s 753 mmHg 30%
14:00 +37°C° 0.1 mm 8 m/s 753 mmHg 34%
15:00 +34°C° 0.1 mm 9 m/s 753 mmHg 38%
16:00 +33°C° 0.1 mm 10 m/s 753 mmHg 42%
17:00 +32°C° 0 mm 10 m/s 753 mmHg 42%
18:00 +31°C° 0 mm 9 m/s 754 mmHg 42%
19:00 +29°C° 0 mm 8 m/s 754 mmHg 42%
20:00 +27°C° 0 mm 8 m/s 755 mmHg 45%
21:00 +26°C° 0 mm 8 m/s 755 mmHg 49%
22:00 +24°C° 0 mm 7 m/s 756 mmHg 52%
23:00 +23°C° 0 mm 7 m/s 756 mmHg 56%

Depois de amanhã, 2 Agosto, Segunda-feira

Tempo Temperatura Precipitação Vento Pressão Humidade
00:00 +22°C° 0 mm 6 m/s 756 mmHg 59%
01:00 +22°C° 0 mm 6 m/s 756 mmHg 63%
02:00 +22°C° 0 mm 6 m/s 757 mmHg 64%
03:00 +22°C° 0 mm 5 m/s 757 mmHg 66%
04:00 +22°C° 0 mm 5 m/s 757 mmHg 67%
05:00 +23°C° 0 mm 5 m/s 757 mmHg 63%
06:00 +25°C° 0 mm 5 m/s 758 mmHg 58%
07:00 +26°C° 0 mm 5 m/s 758 mmHg 53%
08:00 +28°C° 0 mm 5 m/s 758 mmHg 46%
09:00 +29°C° 0 mm 6 m/s 758 mmHg 39%
10:00 +32°C° 0 mm 6 m/s 759 mmHg 31%
11:00 +33°C° 0 mm 6 m/s 758 mmHg 29%
12:00 +34°C° 0 mm 6 m/s 758 mmHg 26%
13:00 +35°C° 0 mm 6 m/s 758 mmHg 24%
14:00 +35°C° 0 mm 6 m/s 758 mmHg 24%
15:00 +35°C° 0 mm 6 m/s 758 mmHg 24%
16:00 +34°C° 0 mm 6 m/s 758 mmHg 25%
17:00 +33°C° 0 mm 5 m/s 758 mmHg 29%
18:00 +30°C° 0 mm 5 m/s 758 mmHg 33%
19:00 +29°C° 0 mm 4 m/s 759 mmHg 37%
20:00 +27°C° 0 mm 4 m/s 759 mmHg 41%
21:00 +25°C° 0 mm 4 m/s 759 mmHg 45%
22:00 +23°C° 0 mm 4 m/s 760 mmHg 49%
23:00 +22°C° 0 mm 4 m/s 760 mmHg 50%

3 Agosto, Terça-feira

Tempo Temperatura Precipitação Vento Pressão Humidade
00:00 +22°C° 0 mm 3 m/s 760 mmHg 50%
01:00 +21°C° 0 mm 3 m/s 760 mmHg 50%
02:00 +21°C° 0 mm 3 m/s 760 mmHg 53%
03:00 +20°C° 0 mm 3 m/s 760 mmHg 56%
04:00 +20°C° 0 mm 4 m/s 760 mmHg 58%
05:00 +21°C° 0 mm 4 m/s 760 mmHg 56%
06:00 +22°C° 0 mm 4 m/s 760 mmHg 53%
07:00 +25°C° 0 mm 4 m/s 761 mmHg 50%
08:00 +27°C° 0 mm 3 m/s 760 mmHg 44%
09:00 +29°C° 0 mm 2 m/s 760 mmHg 37%
10:00 +31°C° 0 mm 2 m/s 760 mmHg 30%
11:00 +33°C° 0 mm 3 m/s 760 mmHg 28%
12:00 +34°C° 0 mm 3 m/s 759 mmHg 25%
13:00 +35°C° 0 mm 4 m/s 759 mmHg 23%
14:00 +34°C° 0 mm 5 m/s 758 mmHg 25%
15:00 +33°C° 0 mm 5 m/s 758 mmHg 28%
16:00 +30°C° 0 mm 6 m/s 758 mmHg 30%
17:00 +30°C° 0 mm 5 m/s 758 mmHg 32%
18:00 +29°C° 0 mm 5 m/s 758 mmHg 33%
19:00 +28°C° 0 mm 5 m/s 758 mmHg 35%
20:00 +27°C° 0 mm 4 m/s 758 mmHg 42%
21:00 +25°C° 0 mm 4 m/s 758 mmHg 49%
22:00 +22°C° 0 mm 4 m/s 758 mmHg 55%
23:00 +22°C° 0 mm 4 m/s 758 mmHg 59%

4 Agosto, Quarta-feira

Tempo Temperatura Precipitação Vento Pressão Humidade
00:00 +21°C° 0 mm 4 m/s 758 mmHg 63%
01:00 +21°C° 0 mm 4 m/s 758 mmHg 66%
02:00 +21°C° 0 mm 3 m/s 758 mmHg 69%
03:00 +20°C° 0 mm 3 m/s 758 mmHg 72%
04:00 +20°C° 0 mm 3 m/s 758 mmHg 75%
05:00 +21°C° 0 mm 2 m/s 758 mmHg 71%
06:00 +23°C° 0 mm 2 m/s 758 mmHg 67%
07:00 +24°C° 0 mm 2 m/s 759 mmHg 62%
08:00 +27°C° 0 mm 2 m/s 759 mmHg 54%
09:00 +29°C° 0 mm 3 m/s 759 mmHg 45%
10:00 +33°C° 0 mm 3 m/s 759 mmHg 37%
11:00 +33°C° 0 mm 3 m/s 758 mmHg 36%
12:00 +34°C° 0 mm 4 m/s 758 mmHg 34%
13:00 +34°C° 0 mm 4 m/s 757 mmHg 32%
14:00 +34°C° 0 mm 5 m/s 757 mmHg 32%
15:00 +34°C° 0 mm 5 m/s 757 mmHg 31%
16:00 +34°C° 0 mm 6 m/s 757 mmHg 31%
17:00 +33°C° 0 mm 6 m/s 757 mmHg 36%
18:00 +30°C° 0 mm 6 m/s 757 mmHg 40%
19:00 +29°C° 0 mm 6 m/s 757 mmHg 45%
20:00 +28°C° 0 mm 6 m/s 757 mmHg 47%
21:00 +27°C° 0 mm 6 m/s 757 mmHg 50%
22:00 +26°C° 0 mm 6 m/s 757 mmHg 52%
23:00 +26°C° 0 mm 6 m/s 757 mmHg 54%

5 Agosto, Quinta-feira

Tempo Temperatura Precipitação Vento Pressão Humidade
00:00 +26°C° 0 mm 7 m/s 757 mmHg 56%
01:00 +24°C° 0 mm 7 m/s 757 mmHg 58%
02:00 +24°C° 0 mm 6 m/s 757 mmHg 60%
03:00 +23°C° 0 mm 6 m/s 757 mmHg 63%
04:00 +23°C° 0 mm 6 m/s 757 mmHg 66%
05:00 +25°C° 0 mm 5 m/s 757 mmHg 63%
06:00 +25°C° 0 mm 5 m/s 757 mmHg 60%
07:00 +26°C° 0 mm 5 m/s 757 mmHg 57%
08:00 +28°C° 0.1 mm 5 m/s 757 mmHg 50%
09:00 +30°C° 0.1 mm 6 m/s 757 mmHg 43%
10:00 +32°C° 0.1 mm 6 m/s 757 mmHg 36%
11:00 +33°C° 0 mm 6 m/s 756 mmHg 30%
12:00 +35°C° 0 mm 6 m/s 756 mmHg 25%
13:00 +36°C° 0 mm 6 m/s 755 mmHg 19%
14:00 +35°C° 0 mm 6 m/s 755 mmHg 20%
15:00 +35°C° 0 mm 6 m/s 755 mmHg 20%
16:00 +34°C° 0 mm 6 m/s 755 mmHg 21%
17:00 +33°C° 0 mm 5 m/s 754 mmHg 28%
18:00 +30°C° 0 mm 5 m/s 754 mmHg 35%
19:00 +28°C° 0 mm 4 m/s 754 mmHg 43%
20:00 +27°C° 0 mm 5 m/s 754 mmHg 49%
21:00 +26°C° 0 mm 5 m/s 755 mmHg 56%
22:00 +25°C° 0 mm 5 m/s 755 mmHg 62%
23:00 +23°C° 0.1 mm 5 m/s 755 mmHg 66%
Mostrar mais

Necessitamos do seu Consentimento

A Meteoprog e os seus Fornecedores de Serviços podem armazenar e aceder a dados pessoais como cookies, identificadores do dispositivo ou outras tecnologias semelhantes existentes no seu dispositivo e processar estes dados para personalizar conteúdos e anúncios, assim como funcionalidades nas redes sociais e análise de tráfego.

  • Armazenar e/ou aceder a informações no seu dispositivo

    Os cookies, identificadores do dispositivo ou outras informações podem ser armazenados ou acedidos no seu dispositivo, para os fins acima indicados.

  • Anúncios e conteúdos personalizados, medição de anúncios e conteúdos, dados sobre o público-alvo e desenvolvimento de produtos

    Os anúncios e os conteúdos podem ser personalizados com base num perfil. Podem ser adicionados dados adicionais para uma maior personalização dos anúncios e dos conteúdos. A eficácia dos anúncios e dos conteúdos pode ser medida. Podem ser obtidas informações sobre o público que visualizou os anúncios e os conteúdos. Estes dados podem ser usados para desenvolver ou melhorar sistemas, softwares ou a experiência do utilizador.

Ao clicar em "Eu concordo”, permitirá o uso de cookies, identificadores do dispositivo e web beacons mencionados ou outras tecnologias semelhantes. As configurações do navegador do seu dispositivo podem ser alteradas.

Para certos fins, podem ser invocados interesses legítimos ao invés de consentimento. Pode ler mais informação sobre este assunto na nossa Política de Privacidade e Cookies.